Regional Weather Roundup
Issued by NWS

Home | Current Version | Previous Version | Graphics & Text | Print | Product List | Glossary On
Versions: 1 2 3 4 5 6 7 8 9 10 11 12 13 14 15 16 17 18 19 20 21 22 23 24 25 26 27 28 29 30 31 32 33 34 35 36 37 38 39 40 41 42 43 44 45 46 47 48 49 50
000
ASUS43 KIND 221159
RWRIN

WEATHER ROUNDUP FOR INDIANA
NATIONAL WEATHER SERVICE INDIANAPOLIS IN
800 AM EDT SAT APR 22 2017

NOTE: "FAIR" INDICATES FEW OR NO CLOUDS BELOW 12,000 FEET WITH NO
SIGNIFICANT WEATHER AND/OR OBSTRUCTIONS TO VISIBILITY.

* - STATION DOES NOT REPORT WEATHER SUCH AS PRECIPITATION OR FOG.

+ - STATION NOT QUALITY CONTROLLED BY THE NATIONAL WEATHER SERVICE.
    USE DATA WITH CAUTION...ESPECIALLY DEWPOINT AND RELATIVE
    HUMIDITY OBSERVATIONS.

INZ001>003-010>013-019-020-221300-
NORTHWEST INDIANA

CITY           SKY/WX    TMP DP  RH WIND       PRES   REMARKS
GARY /AIRPORT/ PTSUNNY   45  37  76 NE9G21    30.17R
MONTICELLO +   PTSUNNY   41  36  81 NE12      30.11R
6HR MIN TEMP:  41; 6HR MAX TEMP:  42;


$$

LMZ046-743>745-221300-
SOUTHERN LAKE MICHIGAN

STATION/POSITION TIME  TEMP    WIND        PRES    WAVE
                       AIR SEA DIR/SP/G            HT
                 (UTC) (F)     (DEG/KT/KT) (MB)    (FT)
BURNS HARBOR     1140   44      40/ 14/ 16 1021.7R
MICHIGAN CITY    1130   44      40/ 16/ 17   N/A

$$

INZ004-005-014>016-021>024-221300-
NORTH CENTRAL INDIANA

CITY           SKY/WX    TMP DP  RH WIND       PRES   REMARKS
ELKHART        SUNNY     39  34  81 CALM      30.16
GOSHEN         CLOUDY    40  34  79 NE6       30.15R
6HR MIN TEMP:  38; 6HR MAX TEMP:  40;

PERU/GRISSOM   PTSUNNY   42  38  86 NE10      30.09R
6HR MIN TEMP:  41; 6HR MAX TEMP:  42;

SOUTH BEND     CLOUDY    39  34  82 NE7       30.16R
6HR MIN TEMP:  35; 6HR MAX TEMP:  39;


$$

INZ006>009-017-018-025>027-221300-
NORTHEAST INDIANA

CITY           SKY/WX    TMP DP  RH WIND       PRES   REMARKS
ANGOLA *+      SUNNY     41  36  81 NE7       30.13R
FORT WAYNE     PTSUNNY   42  35  76 NE10      30.13R
6HR MIN TEMP:  41; 6HR MAX TEMP:  46;

KENDALLVILLE + CLOUDY    41  36  81 NE6       30.14R

$$

INZ028-029-035-036-043>045-051>053-221300-
WEST CENTRAL INDIANA

CITY           SKY/WX    TMP DP  RH WIND       PRES   REMARKS
CRAWFORDSVL +  CLOUDY    41  36  82 NE13      30.07R
6HR MIN TEMP:  40; 6HR MAX TEMP:  41;

GREENCASTLE +  CLOUDY    43  36  75 NE7       30.05R
LAFAYETTE      PTSUNNY   42  37  82 NE12      30.09R
6HR MIN TEMP:  41; 6HR MAX TEMP:  43;

TERRE HAUTE    CLOUDY    45  37  73 NE15      30.02S
6HR MIN TEMP:  44; 6HR MAX TEMP:  46;


$$

INZ030>032-037>040-046>048-054>057-064-065-221300-
CENTRAL INDIANA

CITY           SKY/WX    TMP DP  RH WIND       PRES   REMARKS
COLUMBUS       SUNNY     45  37  76 NE12      30.02F
INDIANAPOLIS   CLOUDY    45  36  70 NE15      30.04S
6HR MIN TEMP:  45; 6HR MAX TEMP:  46;

-EAGLE CREEK   CLOUDY    45  36  70 NE10      30.05S
6HR MIN TEMP:  45; 6HR MAX TEMP:  46;

KOKOMO +       CLOUDY    42  37  82 NE13      30.10S
6HR MIN TEMP:  41; 6HR MAX TEMP:  43;

SHELBYVILLE    CLOUDY    46  37  71 NE15      30.03F
6HR MIN TEMP:  46; 6HR MAX TEMP:  47;


$$

INZ033-034-041-042-049-050-058-059-221300-
EAST CENTRAL INDIANA

CITY           SKY/WX    TMP DP  RH WIND       PRES   REMARKS
MUNCIE         CLOUDY    44  37  76 NE12      30.09R
6HR MIN TEMP:  43; 6HR MAX TEMP:  46;

RICHMOND +     CLOUDY    43  37  81 NE14      30.07R

$$

INZ060-061-067>069-081>083-085>088-221300-
SOUTHWEST INDIANA

CITY           SKY/WX    TMP DP  RH WIND       PRES   REMARKS
EVANSVILLE     CLOUDY    47  42  83 NE15      29.94F
6HR MIN TEMP:  46; 6HR MAX TEMP:  51; 6HR PCP:  0.07;

HUNTINGBURG *+ CLOUDY    46  43  89 NE12      29.96R
6HR MIN TEMP:  45; 6HR MAX TEMP:  49; 6HR PCP:  0.02;


$$

INZ062-063-066-070>080-084-089>092-221300-
SOUTH CENTRAL AND SOUTHEAST INDIANA

CITY           SKY/WX    TMP DP  RH WIND       PRES   REMARKS
BLOOMINGTON    PTSUNNY   46  37  71 NE12      30.02R
6HR MIN TEMP:  45; 6HR MAX TEMP:  46;

MADISON *+     CLOUDY    46  41  81 NE13      30.00F
SEYMOUR +      CLOUDY    48  41  76 NE12      30.00F

$$





USA.gov is the U.S. government's official web portal to all federal, state and local government web resources and services.